Hesperia, California
Current Conditions -  °F | °C
As of 1:35 PM on Thursday 18 Dec 2014 (Local Time) from KVCV Reporting Station
NA  
Wind Chill: 52°   Ceiling: NA
Heat Index: 52°   Visibility: 10mi
Dew Point: 36°   Wind: 3mph
Humidity: 54%   Direction: 20°NNE
Pressure: 30.15"   Gusts: NA
Location:  34.42°N, 117.31°W
Report Text: KVCV 182135Z AUTO 02003KT 10SM 11/02 A3015 RMK AO2
Loading
Personal Weather Stations






























Interactive Weather Map New forecast layout! Learn more

10-Day Weather Forecast

Advertisements
Track Severe Weather on mobile